Location: Unspecified
(0.0000°N, 0.0000°E)
Time: 04:56:33
(UTC+00:00)

XW-2C - Pass Details

Date: 16 December 2017
Orbit: 511 x 531 km, 97.5° (Epoch: 16 January)

Event Time Altitude Azimuth Distance (km) Brightness Sun altitude
Rises 04:52:49 0° 44° (NE) 2,651 ? -14.4°
Reaches altitude 10° 04:55:50 10° 71° (ENE) 1,763 ? -13.7°
Maximum altitude 04:57:46 14° 101° (ESE) 1,546 ? -13.3°
Drops below altitude 10° 04:59:42 10° 132° (SE) 1,761 ? -12.8°
Sets 05:02:42 0° 159° (SSE) 2,648 ? -12.1°
